Pierceville, KS

2:26 AM CST on February 24, 2017 (GMT -0600)
Garden City Regional

Weather History for KGCK - January, 2013

Change the Weather History Date:

Saturday, January 26, 2013

  Actual Average Record
Temperature  
Mean Temperature 41 °F 31 °F  
Max Temperature 56 °F 45 °F 74 °F (1951)
Min Temperature 26 °F 18 °F -8 °F (1950)
Degree Days  
Heating Degree Days 24 34  
Month to date heating degree days 919 884  
Since 1 July heating degree days 2889 3007  
Cooling Degree Days 0 0  
Month to date cooling degree days 0 0  
Year to date cooling degree days 0 0  
Moisture  
Dew Point 28 °F    
Average Humidity 58    
Maximum Humidity 84    
Minimum Humidity 32    
Precipitation  
Precipitation T in 0.01 in 0.43 in (1994)
Month to date precipitation 0.11 0.28  
Year to date precipitation 0.11 0.28  
Sea Level Pressure  
Sea Level Pressure 30.02 in    
Wind  
Wind Speed 12 mph (SSE)    
Max Wind Speed 22 mph    
Max Gust Speed 28 mph    
Visibility 10 miles    
Events Rain    
T = Trace of Precipitation, MM = Missing Value Source: NWS Daily Summary

Daily Weather History Graph

Daily Weather History Graph

Search for Another Location

Airport or City:

Trip Planner

Search our weather history database for the weather conditions in past years. The results will help you decide how hot, cold, wet, or windy it might be!

Date:

Astronomy

Jan. 26, 2013 Rise Set
Actual Time 7:51 AM CST 5:59 PM CST
Civil Twilight 7:23 AM CST 6:27 PM CST
Nautical Twilight 6:51 AM CST 6:59 PM CST
Astronomical Twilight 6:20 AM CST 7:30 PM CST
Moon 5:55 PM CST (1/26) 7:11 AM CST (1/26)
Length of Visible Light 11h 04m
Length of Day
10h 08m
Full, 100% of the Moon is Illuminated
Jan 26
Full
Jan 26
Full
Feb 3
Last Quarter
Feb 10
New
Feb 17
First Quarter

Hourly Weather History & Observations

Time (CST) Temp. Windchill Dew Point Humidity Pressure Visibility Wind Dir Wind Speed Gust Speed Precip Events Conditions
12:54 AM 33.1 °F 27.7 °F 25.0 °F 72% 30.16 in 10.0 mi SSE 5.8 mph - N/A   Clear
1:54 AM 32.0 °F 25.6 °F 24.1 °F 73% 30.14 in 10.0 mi SSE 6.9 mph - N/A   Clear
2:54 AM 30.9 °F 22.8 °F 24.1 °F 76% 30.13 in 10.0 mi SSE 9.2 mph - N/A   Clear
3:54 AM 30.0 °F 24.1 °F 23.0 °F 75% 30.11 in 10.0 mi SSE 5.8 mph - N/A   Clear
4:54 AM 28.9 °F 23.9 °F 23.0 °F 78% 30.11 in 10.0 mi South 4.6 mph - N/A   Clear
5:54 AM 28.9 °F 20.4 °F 23.0 °F 78% 30.10 in 10.0 mi SE 9.2 mph - N/A   Clear
6:54 AM 27.0 °F 19.5 °F 23.0 °F 85% 30.12 in 10.0 mi SSE 6.9 mph - N/A   Clear
7:54 AM 27.0 °F 19.5 °F 23.0 °F 85% 30.13 in 10.0 mi SSE 6.9 mph - N/A   Clear
8:54 AM 30.0 °F 24.1 °F 25.0 °F 82% 30.13 in 10.0 mi SSE 5.8 mph - N/A   Clear
9:54 AM 37.0 °F 28.5 °F 27.0 °F 67% 30.11 in 10.0 mi South 13.8 mph - N/A   Clear
10:54 AM 44.1 °F 36.8 °F 26.1 °F 49% 30.10 in 10.0 mi South 16.1 mph - N/A   Clear
11:54 AM 46.9 °F - 27.0 °F 46% 30.06 in 10.0 mi South 11.5 mph - N/A   Clear
12:54 PM 51.1 °F - 26.1 °F 38% 30.02 in 10.0 mi SSE 12.7 mph - N/A   Clear
1:54 PM 54.0 °F - 26.1 °F 34% 29.98 in 10.0 mi SSE 16.1 mph - N/A   Clear
2:54 PM 55.0 °F - 27.0 °F 34% 29.95 in 10.0 mi SSE 17.3 mph - N/A   Clear
3:54 PM 55.0 °F - 28.0 °F 35% 29.94 in 10.0 mi South 17.3 mph 24.2 mph N/A   Clear
4:54 PM 51.1 °F - 28.0 °F 41% 29.94 in 10.0 mi South 15.0 mph - N/A   Clear
5:54 PM 48.0 °F - 28.0 °F 46% 29.92 in 10.0 mi SSE 12.7 mph - N/A   Overcast
6:54 PM 46.0 °F 39.9 °F 32.0 °F 58% 29.93 in 10.0 mi SE 13.8 mph - 0.00 in   Overcast
7:54 PM 45.0 °F 37.4 °F 34.0 °F 65% 29.91 in 9.0 mi SE 18.4 mph - 0.00 in Rain Light Rain
8:54 PM 43.0 °F 35.1 °F 36.0 °F 76% 29.88 in 10.0 mi SE 17.3 mph - 0.00 in Rain Light Rain
9:54 PM 43.0 °F 34.5 °F 35.1 °F 74% 29.87 in 10.0 mi SSE 19.6 mph - 0.00 in   Overcast
10:54 PM 42.1 °F 34.2 °F 34.0 °F 73% 29.84 in 10.0 mi SSE 16.1 mph - N/A   Clear
11:54 PM 39.9 °F 31.8 °F 33.1 °F 77% 29.83 in 10.0 mi SSE 15.0 mph - N/A   Clear